{"data":{"norad_id":69336,"intl_designator":"2026-122H","name":"STARLINK-37791","alt_names":[],"object_type":"PAYLOAD","status":"ACTIVE","operator":null,"country":"US","launch_date":"2026-06-03","launch_site_code":"AFWTR","launch_vehicle":null,"mission":null,"orbit_class":"UNKNOWN","rcs_meters":null,"size_class":null,"mass_kg":null,"dimensions":null,"purposes":["comms"],"wikipedia_slug":null,"has_3d_model":false,"image_url":null,"decayed_at":null,"tle_current":{"epoch":"2026-09-20T00:29:27.126240Z","epoch_age_seconds":70472,"freshness":"FRESH","line1":"1 69336U 26122H   26263.02045285  .00013931  00000+0  43281-3 0  9992","line2":"2 69336  97.2821 291.6119 0003275 109.7523 250.4073 15.33457899 16722","mean_motion":15.33457899,"eccentricity":0.0003275,"inclination_deg":97.2821,"raan_deg":291.6119,"arg_perigee_deg":109.7523,"mean_anomaly_deg":250.4073,"bstar":0.00043281,"rev_number":1672,"period_min":93.905414745266,"perigee_km":463.26350371005,"apogee_km":467.74608908669,"semimajor_km":6843.6417963984,"source":"CELESTRAK","updated_at":"2026-09-20T09:00:44.160328Z"}}}